Weather in Kostoma

Russia / Kostroma Oblast     58°19′36″N   41°54′06″E
temp.,
°C
wind,
m/s
gust,
m/s
humid.,
%
clouds,
%
prec.,
mm/h
press.,
hPa
HPBL,
m
14 june, mon
mon1400:00+14sw22945 0.0 100917
03:00+13wsw22965 0.0 101017
06:00+16wsw23925 0.0 1011134
09:00+21wsw346430 0.1 1012584
12:00+25w354679 0.9 10122357
15:00+20sw2472100 0.9 1013108
18:00+22w3661100 0.0 1013567
21:00+17wnw128136 0.0 101423
15 june, tue
tue1500:00+14n009130 0.0 101411
03:00+13ene119489 0.0 101411
06:00+17se11796 0.0 1014130
09:00+22ssw235942 0.0 1014805
12:00+24ssw24593 0.6 10121370
15:00+25wsw355062 1.4 10111742
18:00+23s25722 0.5 1009619
21:00+17sw23925 2.5 101048
16 june, wed
wed1600:00+16ssw229526 1.2 100934
03:00+15sw119465 1.2 100912
06:00+17w229395 0.0 100971
09:00+17nnw479293 1.8 1009357
12:00+15nnw3889100 0.9 1011490
15:00+21nnw48442 0.9 10112150
18:00+20nw59400 0.0 10121538
21:00+14nw31057100 0.0 1014224
17 june, thu
thu1700:00+11nw3116328 0.0 1017278
03:00+9wnw38680 0.0 1018173
06:00+12nw38640 0.0 1020281
09:00+17nw47420 0.0 10211200
12:00+20nw59375 0.0 10212241
15:00+22nw583722 0.0 10212416
18:00+21nw48454 0.0 10221741
21:00+15wnw24760 0.0 102374
18 june, fri
fri1800:00+12wnw22820 0.0 102421
03:00+11wnw22855 0.0 102516
06:00+15w1371100 0.0 1025123
09:00+21w24515 0.0 1025618
12:00+24w35415 0.0 10241580
15:00+26w464017 0.0 10232011
18:00+24wnw465176 0.0 1023896
21:00+18wsw24740 0.0 102356